COSMOS 1275 DEB, 42150

Orbit data source: Space-Track

COSMOS 1275 DEB, 42150 is space debris in LEO originally from a launch on Thu, 04 Jun 1981 UTC launched from the Plesetsk Missile And Space Complex (PKMTR). Debris objects in space refer to the collection of defunct objects orbiting the Earth. Examples of debris include non-operational satellites, rocket bodies, and fragments generated from explosions, collisions, or faulty payload assembly.

Loading next visibility...
Identifier
42150, 1981-053RN
Orbit
LEO
Country
Flag of CISCIS
Related business
Manufacturer
Unknown
Mission
Spacecraft
Bus & Motor
Unknown
Mass
Unknown
Launch date (UTC)
1981-06-04 (45 years ago)
Launch vehicle
Unknown
Launch site
Plesetsk Missile And Space Complex (PKMTR)
Object type
Payload
Rocket body
Debris
Shape & HBR
Unknown shape, 0.1 m
Radar Cross Section
Small (<0.1 m²)

Expand to show TLE details & history
Last TLE update: 2 weeks ago

TLE from 2 weeks ago
0 COSMOS 1275 DEB
1 42150U 81053RN  26161.07108366  .00000836  00000-0  10944-2 0  9993
2 42150  83.0827  84.4471 0214096 238.5675 119.4380 13.51615747572446
Epoch: 2026-06-10T01:42Z
TLE epoch observation values (Epoch: 2026-06-10T01:42:21.628Z)
Latitude
0.00002°
Longitude
160.42248°
Altitude
1,150.086 km
Speed
7.238 km/s
True Right ascension
05h 37m 47s
True Declination
0° 00' 00"
Sunlit
Object was in daylight at epoch
Visualization orbit readout
Latitude
Unknown
Longitude
Unknown
Altitude
Unknown
Speed
Unknown
Apparent Right ascension
Unknown
Apparent Declination
Unknown
Sunlit
N/A
Visualization observer readout
Local Sidereal Time
14:33:34
Azimuth
Unknown
Elevation
Unknown
Doppler factor
Unknown
Orbital elements
Apogee altitude
1,222.816 km
Perigee altitude
904.172 km
Semi-major axis
7,441.631 km
Eccentricity
0.02141
Inclination
83.0827°
RAAN
84.4471°
Arg. of periapsis
238.5675°
True anomaly
121.54637°
Mean anomaly
119.438°
Eccentric anomaly
120.495°
Mean motion
3.38097 °/min
Orbital period
106.48 mins
BSTAR
0.0010944
Loading maneuver chart data...
Computing Atmospheric mass density...
Loading historical data...
Loading historical data...
Loading historical data...
Loading historical data...
Loading historical data...
Loading historical data...
Loading historical data...

Documentation

Showing up to 5 results
|